Weather History for LSGG - August, 2013

Change the Weather History Date:

Thursday, August 29, 2013

  Actual Average Record
Temperature  
Mean Temperature 64 °F -  
Max Temperature 72 °F 69 °F 80 °F (2001)
Min Temperature 55 °F 48 °F 44 °F (1998)
Degree Days  
Heating Degree Days 2    
Growing Degree Days 14 (Base 50)    
Moisture  
Dew Point 54 °F    
Average Humidity 70    
Maximum Humidity 88    
Minimum Humidity 38    
Precipitation  
Precipitation 0.00 in 0.10 in - ()
Sea Level Pressure  
Sea Level Pressure 30.13 in    
Wind  
Wind Speed 3 mph ()    
Max Wind Speed 12 mph    
Max Gust Speed -    
Visibility 6.3 miles    
Events      
Averages and records for this station are not official NWS values.
T = Trace of Precipitation, MM = Missing Value Source: Averaged Metar Reports

Daily Weather History Graph

Daily Weather History Graph

Search for Another Location

Airport or City:

Trip Planner

Search our weather history database for the weather conditions in past years. The results will help you decide how hot, cold, wet, or windy it might be!

Date:

Astronomy

Aug. 29, 2013 Rise Set
Actual Time 6:52 AM CEST 8:19 PM CEST
Civil Twilight 6:20 AM CEST 8:50 PM CEST
Nautical Twilight 5:42 AM CEST 9:28 PM CEST
Astronomical Twilight 5:01 AM CEST 10:09 PM CEST
Moon 12:21 AM CEST (8/29) 3:45 PM CEST (8/29)
Length of Visible Light 14h 30m
Length of Day
13h 27m
Last Quarter, 40% of the Moon is Illuminated
Aug 29
Last Quarter
Sep 5
New
Sep 12
First Quarter
Sep 19
Full
Sep 27
Last Quarter

Hourly Weather History & Observations

Time (CEST) Temp. Dew Point Humidity Pressure Visibility Wind Dir Wind Speed Gust Speed Precip Events Conditions
12:20 AM 59.0 °F 53.6 °F 82% 30.09 in - Variable 2.3 mph - N/A   Clear
12:50 AM 57.2 °F 53.6 °F 88% 30.09 in - Variable 2.3 mph - N/A   Clear
1:00 AM 58 °F 52 °F 76% 30.10 in - North 3.5 mph - -  
1:20 AM 57.2 °F 53.6 °F 88% 30.12 in 6.2 mi Variable 2.3 mph - N/A   Partly Cloudy
1:50 AM 57.2 °F 53.6 °F 88% 30.12 in 6.2 mi Variable 2.3 mph - N/A   Partly Cloudy
2:20 AM 55.4 °F 51.8 °F 88% 30.12 in 6.2 mi Variable 1.2 mph - N/A   Partly Cloudy
2:50 AM 57.2 °F 51.8 °F 82% 30.12 in 6.2 mi Calm Calm - N/A   Partly Cloudy
3:00 AM 56 °F 51 °F 77% 30.12 in - NNE 2.3 mph - -  
3:50 AM 57.2 °F 53.6 °F 88% 30.12 in 6.2 mi Calm Calm - N/A   Mostly Cloudy
4:00 AM 57 °F 52 °F 78% 30.12 in - NW 2.3 mph - -  
4:20 AM 57.2 °F 51.8 °F 82% 30.12 in 6.2 mi Calm Calm - N/A   Mostly Cloudy
4:50 AM 57.2 °F 51.8 °F 82% 30.12 in 6.2 mi Calm Calm - N/A   Mostly Cloudy
5:20 AM 57.2 °F 51.8 °F 82% 30.12 in 6.2 mi WNW 3.5 mph - N/A   Mostly Cloudy
5:50 AM 57.2 °F 51.8 °F 82% 30.12 in 6.2 mi Calm Calm - N/A   Mostly Cloudy
6:00 AM 57 °F 52 °F 78% 30.12 in - West 1.2 mph - -  
6:20 AM 57.2 °F 53.6 °F 88% 30.12 in 6.2 mi Calm Calm - N/A   Mostly Cloudy
6:50 AM 57.2 °F 53.6 °F 88% 30.12 in 6.2 mi Variable 1.2 mph - N/A   Mostly Cloudy
7:00 AM 58 °F 53 °F 78% 30.13 in - NNW 3.5 mph - -  
7:20 AM 59.0 °F 53.6 °F 82% 30.12 in 6.2 mi Variable 3.5 mph - N/A   Mostly Cloudy
7:50 AM 59.0 °F 55.4 °F 88% 30.15 in 6.2 mi Variable 2.3 mph - N/A   Mostly Cloudy
8:00 AM 60 °F 54 °F 76% 30.14 in 7 mi NNE 3.5 mph - -   Mist
8:20 AM 60.8 °F 55.4 °F 82% 30.15 in 6.2 mi Variable 1.2 mph - N/A   Mostly Cloudy
8:50 AM 60.8 °F 55.4 °F 82% 30.15 in 6.2 mi ENE 4.6 mph - N/A   Mostly Cloudy
9:00 AM 61 °F 55 °F 76% 30.15 in - NE 3.5 mph - -  
9:20 AM 60.8 °F 57.2 °F 88% 30.15 in 6.2 mi Variable 3.5 mph - N/A   Mostly Cloudy
9:50 AM 62.6 °F 57.2 °F 82% 30.15 in 6.2 mi ENE 6.9 mph - N/A   Mostly Cloudy
10:00 AM 62 °F 56 °F 73% 30.15 in - ENE 6.9 mph - -  
10:20 AM 62.6 °F 57.2 °F 82% 30.15 in 6.2 mi ENE 8.1 mph - N/A   Scattered Clouds
10:50 AM 64.4 °F 55.4 °F 73% 30.15 in 6.2 mi ENE 10.4 mph - N/A   Scattered Clouds
11:20 AM 64.4 °F 55.4 °F 73% 30.15 in 6.2 mi NE 11.5 mph - N/A   Scattered Clouds
11:50 AM 66.2 °F 55.4 °F 68% 30.15 in 6.2 mi ENE 8.1 mph - N/A   Scattered Clouds
12:00 PM 65 °F 55 °F 61% 30.14 in - East 8.1 mph - -  
12:20 PM 66.2 °F 55.4 °F 68% 30.15 in 6.2 mi East 8.1 mph - N/A   Partly Cloudy
12:50 PM 68.0 °F 55.4 °F 64% 30.15 in 6.2 mi ENE 6.9 mph - N/A   Partly Cloudy
1:00 PM 67 °F 55 °F 55% 30.13 in - NE 8.1 mph - -  
1:20 PM 69.8 °F 55.4 °F 60% 30.15 in 6.2 mi NE 9.2 mph - N/A   Partly Cloudy
1:50 PM 69.8 °F 53.6 °F 56% 30.15 in 6.2 mi NE 8.1 mph - N/A   Partly Cloudy
2:00 PM 69 °F 53 °F 47% 30.12 in 7 mi NE 9.2 mph - -   Haze
2:20 PM 69.8 °F 53.6 °F 56% 30.15 in 6.2 mi NE 10.4 mph - N/A   Partly Cloudy
2:50 PM 71.6 °F 53.6 °F 53% 30.15 in 6.2 mi ENE 8.1 mph - N/A   Partly Cloudy
3:00 PM 71 °F 52 °F 41% 30.10 in - NE 9.2 mph - -  
3:20 PM 71.6 °F 53.6 °F 53% 30.15 in 6.2 mi ENE 8.1 mph - N/A   Partly Cloudy
3:50 PM 71.6 °F 53.6 °F 53% 30.15 in 6.2 mi ENE 8.1 mph - N/A   Partly Cloudy
4:00 PM 72 °F 52 °F 39% 30.09 in - NE 8.1 mph - -  
4:20 PM 71.6 °F 53.6 °F 53% 30.15 in 6.2 mi ENE 8.1 mph - N/A   Partly Cloudy
4:50 PM 71.6 °F 53.6 °F 53% 30.15 in 6.2 mi ENE 8.1 mph - N/A   Partly Cloudy
5:20 PM 71.6 °F 53.6 °F 53% 30.15 in 6.2 mi ENE 8.1 mph - N/A   Partly Cloudy
5:50 PM 71.6 °F 53.6 °F 53% 30.12 in 6.2 mi NNE 5.8 mph - N/A   Partly Cloudy
6:00 PM 71 °F 51 °F 38% 30.09 in - NNE 4.6 mph - -  
6:20 PM 71.6 °F 53.6 °F 53% 30.12 in 6.2 mi NE 4.6 mph - N/A   Partly Cloudy
6:50 PM 69.8 °F 53.6 °F 56% 30.12 in 6.2 mi Variable 3.5 mph - N/A   Partly Cloudy
7:00 PM 70 °F 53 °F 44% 30.10 in - North 2.3 mph - -  
7:20 PM 69.8 °F 55.4 °F 60% 30.12 in 6.2 mi Variable 1.2 mph - N/A   Scattered Clouds
7:50 PM 69.8 °F 55.4 °F 60% 30.15 in 6.2 mi Variable 1.2 mph - N/A   Scattered Clouds
8:00 PM 66 °F 55 °F 60% 30.12 in 11 mi NNW 2.3 mph - -   Partly Cloudy
8:20 PM 66.2 °F 57.2 °F 73% 30.15 in 6.2 mi Variable 1.2 mph - N/A   Scattered Clouds
8:50 PM 64.4 °F 55.4 °F 73% 30.15 in 6.2 mi Variable 2.3 mph - N/A   Scattered Clouds
9:00 PM 64 °F 54 °F 63% 30.13 in - North 2.3 mph - -  
9:20 PM 62.6 °F 55.4 °F 77% 30.15 in 6.2 mi Variable 1.2 mph - N/A   Scattered Clouds
9:50 PM 60.8 °F 53.6 °F 77% 30.15 in 6.2 mi Calm Calm - N/A   Partly Cloudy
10:00 PM 62 °F 52 °F 61% 30.15 in - East 1.2 mph - -  
10:20 PM 60.8 °F 53.6 °F 77% 30.15 in - NW 1.2 mph - N/A   Clear
10:50 PM 59.0 °F 53.6 °F 82% 30.15 in - Calm Calm - N/A   Clear
11:20 PM 59.0 °F 53.6 °F 82% 30.15 in - Variable 2.3 mph - N/A   Clear
11:50 PM 57.2 °F 53.6 °F 88% 30.15 in - Calm Calm - N/A   Clear